Weather in Verkh-Askiz

Russia / Republic of Khakassia     53°09′38″N   90°11′00″E
temp.,
°C
wind,
m/s
gust,
m/s
humid.,
%
clouds,
%
prec.,
mm/h
press.,
hPa
HPBL,
m
24 january, mon
mon2401:00−19nw1196100 0.0 10359
04:00−19nnw1196100 0.0 10359
07:00−18nnw1196100 0.0 103510
10:00−15sse0094100 0.1 103642
13:00−13sse119184 0.3 1036160
16:00−14se119672 0.1 103760
19:00−18nw219873 0.1 10409
22:00−19nw229713 0.0 104110
25 january, tue
tue2501:00−20nw229846 0.0 104010
04:00−20nw229817 0.0 103910
07:00−21nw219866 0.0 10399
10:00−19w1198100 0.0 103818
13:00−13ssw118718 0.0 1034141
16:00−14s119585 0.0 103319
19:00−16wnw1198100 0.0 103410
22:00−15wsw1197100 0.0 103315
26 january, wed
wed2601:00−14w1194100 0.0 103310
04:00−16w1196100 0.0 10349
07:00−18nnw119687 0.0 10349
10:00−17nw119698 0.0 103412
13:00−13sse118897 0.0 1032116
16:00−13se1189100 0.0 103144
19:00−15wnw1195100 0.0 10339
22:00−16nw1193100 0.0 10339
27 january, thu
thu2701:00−16nnw1193100 0.0 10339
04:00−16nnw1193100 0.0 10349
07:00−17nnw1193100 0.0 10359
10:00−15nw1192100 0.0 103625
13:00−12s1184100 0.0 1035171
16:00−12se1193100 0.1 1036100
19:00−13ene1197100 0.6 103825
22:00−16nnw119764 0.0 10409
28 january, fri
fri2801:00−18nnw229743 0.0 104110
04:00−19nnw229737 0.0 104110
07:00−20nnw229830 0.0 10429
10:00−18nw119765 0.0 104211
13:00−13sse119177 0.0 1040174
16:00−14ese119655 0.0 104063
19:00−20nnw2110085 0.0 10429
22:00−21nnw2110084 0.0 10429